[[{"header":{"parameterUnit":"m.s-1","parameterCategory":1,"la1":30.2991,"la2":30.254,"lo1":-89.0895,"lo2":-89.0444,"dy":0.0017,"dx":0.0017,"nx":28,"ny":28,"refTime":"2023-09-20T09:00:00:Z","depth":0,"parameterNumber":2,"parameterNumberName":"U-component_of_WINDS"},"data":[0,0,0,0,0,0,0,0,0,0,0,0,0,0,0,0,0,0,0,0,0,0,0,0,0,0,0,0,0,0,0,0,0,0,0,0,0,0,0,0,0,0,0,0,0,0,0,0,0,0,0,0,0,0,0,0,0,0,-4.5967,-4.5969,0,-4.6087,-4.6088,-4.609,-4.5974,-4.5969,-4.5965,-4.596,-4.6079,-4.6086,-4.6093,0,0,0,0,0,0,0,0,0,0,0,0,0,-4.5635,-4.5642,-4.5967,-4.5969,-4.597,-4.6087,-4.6088,-4.609,-4.5974,-4.5969,-4.5963,-4.5958,-4.6076,-4.6085,-4.6094,0,0,0,0,0,0,0,0,0,0,0,0,0,-4.5769,-4.5644,-4.5967,-4.5927,-4.5924,-4.6086,-4.6088,-4.609,-4.5976,-4.5969,-4.5962,-4.5955,-4.6073,-4.6084,-4.6095,-4.6302,0,0,-4.6129,-4.6134,0,0,0,0,0,0,0,0,-4.5762,-4.5782,-4.5931,-4.593,-4.5927,-4.6008,-4.6014,-4.6161,-4.5977,-4.5956,-4.596,-4.5952,-4.6061,-4.6072,-4.611,-4.6307,-4.6312,-4.613,-4.6137,-4.6142,-4.6145,0,0,0,0,0,0,0,-4.5753,-4.5776,-4.6014,-4.5933,-4.5931,-4.5901,-4.5913,-4.6042,-4.6045,-4.5957,-4.5949,-4.5965,-4.6058,-4.6099,-4.6112,-4.6314,-4.613,-4.614,-4.6147,-4.6151,-4.6686,-4.6693,0,0,0,0,0,0,-4.5748,-4.5769,-4.601,-4.6018,-4.5826,-4.5913,-4.5926,-4.5989,-4.6044,-4.6045,-4.5971,-4.5959,-4.6084,-4.6099,-4.6115,-4.636,-4.6142,-4.6152,-4.6159,-4.6679,-4.6688,-4.6696,0,0,0,0,0,0,-4.5742,-4.5771,-4.6006,-4.5891,-4.5919,-4.5926,-4.5998,-4.5995,-4.6036,-4.6054,-4.6054,-4.6013,-4.6079,-4.61,-4.6256,-4.6362,-4.6157,-4.6167,-4.667,-4.6681,-4.6692,-4.6851,0,0,0,0,0,0,-4.5733,-4.5769,-4.5849,-4.5894,-4.5926,-4.6146,-4.6005,-4.6003,-4.6056,-4.6042,-4.6093,-4.6095,-4.6075,-4.624,-4.6267,-4.6374,-4.6176,-4.666,-4.6675,-4.6688,-4.6836,-4.6867,-4.6892,0,0,0,0,0,-4.5721,-4.5888,-4.5853,-4.5883,-4.6025,-4.6153,-4.617,-4.6146,-4.6065,-4.6144,-4.6156,-4.6093,-4.6347,-4.6257,-4.6287,-4.6398,-4.6653,-4.6671,-4.6687,-4.6824,-4.6861,-4.6892,0,0,0,0,0,0,-4.5853,-4.5893,-4.5855,-4.6042,-4.6095,-4.6133,-4.6232,-4.6185,-4.6261,-4.6245,-4.6209,-4.6222,-4.6388,-4.6409,-4.6308,-4.6601,-4.6487,-4.651,-4.6581,-4.6616,-4.6643,-4.6634,-4.6185,0,0,0,0,0,-4.5904,-4.6006,-4.6035,-4.6197,-4.6226,-4.6225,-4.6279,-4.6256,-4.6309,-4.633,-4.6353,-4.6405,-4.6497,-4.6558,-4.6643,-4.684,-4.6848,-4.6931,-4.6959,-4.6982,-4.7002,-4.7106,-4.7143,-4.6751,-4.6751,-4.6751,0,0,-4.601,-4.6045,-4.6111,-4.6224,-4.6262,-4.6367,-4.6244,-4.636,-4.6437,-4.6347,-4.6496,-4.6515,-4.6572,-4.6749,-4.6828,-4.6772,-4.7112,-4.7003,-4.7021,-4.7029,-4.7128,-4.7165,-4.7198,-4.6763,-4.6761,-4.6759,0,0,-4.6257,-4.6294,-4.6433,-4.6474,-4.6534,-4.6533,-4.6566,-4.6612,-4.6621,-4.6771,-4.6706,-4.6796,-4.6955,-4.6998,-4.704,-4.7304,-4.7249,-4.7333,-4.7478,-4.7581,-4.7611,-4.7639,-4.7732,-4.7766,-4.7354,-4.7354,-4.7354,0,-4.638,-4.6537,-4.6509,-4.6631,-4.6682,-4.6608,-4.6747,-4.6788,-4.6873,-4.6909,-4.6845,-4.7043,-4.7075,-4.7261,-4.7326,-4.7364,-4.7399,-4.7326,-4.761,-4.7637,-4.7661,-4.775,-4.7785,-4.7364,-4.7363,-4.7362,-4.7361,0,-4.6685,-4.6795,-4.6899,-4.6985,-4.7048,-4.7178,-4.7169,-4.7236,-4.7208,-4.7213,-4.7366,-4.7403,-4.7494,-4.7537,-4.7509,-4.7719,-4.7682,-4.7615,-4.7499,-4.7709,-4.7791,-4.7825,-4.7378,-4.7374,-4.7371,-4.7369,0,0,-4.7016,-4.7086,-4.7125,-4.7162,-4.7224,-4.7307,-4.7434,-4.7524,-4.7582,-4.7643,-4.7747,-4.7884,-4.7822,-4.787,-4.7847,-4.7938,-4.8143,-4.7859,-4.786,-4.7909,-4.8375,-4.8424,-4.8464,-4.8108,-4.8114,-4.8119,-4.837,0,-4.7263,-4.7484,-4.7463,-4.7672,-4.7772,-4.7703,-4.7813,-4.7862,-4.7871,-4.7956,-4.7964,-4.8061,-4.7973,-4.8002,-4.8088,-4.81,-4.8236,-4.8082,-4.8202,-4.8207,-4.8189,-4.8507,-4.8559,-4.8794,-4.8402,-4.8408,-4.8411,0,-4.7581,-4.7655,-4.7874,-4.792,-4.7962,-4.8061,-4.8142,-4.8225,-4.8279,-4.8279,-4.8334,-4.8296,-4.8421,-4.8305,-4.8477,-4.8372,-4.8421,-4.8434,-4.8443,-4.8451,-4.832,-4.8523,-4.8868,-4.8903,-4.8462,-4.8458,-4.8454,0,-4.7798,-4.7953,-4.8104,-4.8138,-4.8197,-4.8268,-4.8295,-4.8343,-4.8399,-4.847,-4.8505,-4.859,-4.8636,-4.8702,-4.8687,-4.8604,-4.8862,-4.8745,-4.8864,-4.8864,-4.8919,-4.8916,-4.9276,-4.8954,-4.8954,-4.8953,-4.8952,0,-4.8075,-4.8212,-4.8202,-4.8295,-4.8445,-4.842,-4.8569,-4.8588,-4.8631,-4.8725,-4.8671,-4.876,-4.8736,-4.8824,-4.8814,-4.8957,-4.8978,-4.898,-4.8975,-4.8984,-4.8984,-4.9013,-4.8996,-4.8962,-4.896,-4.8958,-4.8957,0,-4.8343,-4.8342,-4.8502,-4.8545,-4.8559,-4.8668,-4.8704,-4.8791,-4.8796,-4.8915,-4.8942,-4.8949,-4.905,-4.9042,-4.9155,-4.9148,-4.9324,-4.9301,-4.9307,-4.9301,-4.942,-4.9408,-4.981,-4.9861,-4.9508,-4.9512,-4.9515,0,-4.8518,-4.8622,-4.8677,-4.8737,-4.8769,-4.8867,-4.8924,-4.8904,-4.8965,-4.9035,-4.9113,-4.921,-4.9285,-4.9449,-4.9463,-4.955,-4.9527,-4.9662,-4.9539,-4.9544,-4.9527,-4.952,-4.9529,-4.9685,-4.9689,-4.9692,-4.9695,0,-4.883,-4.8825,-4.891,-4.8997,-4.9067,-4.9133,-4.9193,-4.9245,-4.9231,-4.9303,-4.9406,-4.9465,-4.9581,-4.9677,-4.9759,-4.9786,-4.9738,-4.9734,-4.9766,-4.9774,-4.9773,-4.9773,-4.937,-4.9724,-4.9721,-4.9719,-4.9718,-4.9716,-4.9055,-4.9144,-4.9197,-4.9293,-4.9337,-4.9395,-4.9479,-4.9495,-4.9581,-4.9675,-4.9658,-4.9774,-4.9825,-4.9931,-4.9966,-5.0055,-5.0006,-5.0052,-5.0064,-5.0075,-5.0088,-4.9761,-5.007,-5.0069,-5.0068,-5.0068,-5.0067,0,-4.9362,-4.9393,-4.9483,-4.957,-4.9646,-4.9597,-4.9662,-4.9728,-4.9831,-4.9884,-4.996,-5.0078,-5.0171,-5.0194,-5.0283,-5.035,-5.033,-5.0373,-5.0367,-5.0373,-5.0127,-5.009,-5.0388,-5.0388,-5.0388,-5.0388,-5.0387,-5.0387,-4.953,-4.9677,-4.9679,-4.9847,-4.9877,-4.9991,-5.0032,-5.0084,-5.0126,-5.0261,-5.0339,-5.0354,-5.0394,-5.0486,-5.0568,-5.0572,-5.0607,-5.0659,-5.0654,-5.0423,-5.0391,-5.036,-5.0325,-5.0667,-5.0667,-5.0892,-5.0894,-5.0896]},{"header":{"parameterUnit":"m.s-1","parameterCategory":1,"la1":30.2991,"la2":30.254,"lo1":-89.0895,"lo2":-89.0444,"dy":0.0017,"dx":0.0017,"nx":28,"ny":28,"refTime":"2023-09-20T09:00:00:Z","depth":0,"parameterNumber":3,"parameterNumberName":"V-component_of_WINDS"},"data":[0,0,0,0,0,0,0,0,0,0,0,0,0,0,0,0,0,0,0,0,0,0,0,0,0,0,0,0,0,0,0,0,0,0,0,0,0,0,0,0,0,0,0,0,0,0,0,0,0,0,0,0,0,0,0,0,0,0,-1.8368,-1.8368,0,-1.8363,-1.8362,-1.8362,-1.8345,-1.8344,-1.8344,-1.8343,-1.8339,-1.834,-1.834,0,0,0,0,0,0,0,0,0,0,0,0,0,-1.8361,-1.8362,-1.8368,-1.8368,-1.8367,-1.8363,-1.8362,-1.8362,-1.8345,-1.8344,-1.8344,-1.8343,-1.8339,-1.834,-1.834,0,0,0,0,0,0,0,0,0,0,0,0,0,-1.8361,-1.8362,-1.8368,-1.8358,-1.8357,-1.8363,-1.8362,-1.8362,-1.8345,-1.8344,-1.8344,-1.8343,-1.8339,-1.834,-1.834,-1.8355,0,0,-1.8341,-1.8341,0,0,0,0,0,0,0,0,-1.8361,-1.8361,-1.8359,-1.8359,-1.8358,-1.8354,-1.8359,-1.836,-1.8345,-1.835,-1.8343,-1.8343,-1.8345,-1.8345,-1.8345,-1.8355,-1.8354,-1.8341,-1.8342,-1.8342,-1.8342,0,0,0,0,0,0,0,-1.8361,-1.8361,-1.8366,-1.8359,-1.8358,-1.8354,-1.8353,-1.8359,-1.8351,-1.8349,-1.8348,-1.8347,-1.8344,-1.8345,-1.8345,-1.8354,-1.8341,-1.8342,-1.8342,-1.8342,-1.8373,-1.8374,0,0,0,0,0,0,-1.8362,-1.8361,-1.8366,-1.8365,-1.8358,-1.8354,-1.8354,-1.8356,-1.8351,-1.8349,-1.8348,-1.8347,-1.8344,-1.8344,-1.8345,-1.836,-1.8342,-1.8342,-1.8342,-1.8372,-1.8373,-1.8374,0,0,0,0,0,0,-1.8362,-1.8363,-1.8366,-1.8363,-1.8363,-1.8355,-1.8357,-1.8356,-1.8356,-1.835,-1.8348,-1.835,-1.8344,-1.8344,-1.8352,-1.8359,-1.8342,-1.8343,-1.8372,-1.8373,-1.8373,-1.8391,0,0,0,0,0,0,-1.8362,-1.8363,-1.8369,-1.8363,-1.8363,-1.8373,-1.8358,-1.8356,-1.8357,-1.8355,-1.8351,-1.835,-1.8343,-1.8351,-1.8352,-1.836,-1.8343,-1.8371,-1.8372,-1.8373,-1.839,-1.8393,-1.8395,0,0,0,0,0,-1.8362,-1.8375,-1.8369,-1.837,-1.837,-1.8374,-1.8374,-1.8366,-1.8358,-1.8363,-1.8358,-1.835,-1.8359,-1.8352,-1.8353,-1.8361,-1.8371,-1.8372,-1.8373,-1.8389,-1.8392,-1.8395,0,0,0,0,0,0,-1.8382,-1.8374,-1.8368,-1.8379,-1.8377,-1.8371,-1.8378,-1.837,-1.8371,-1.8369,-1.8359,-1.8358,-1.8367,-1.8365,-1.8358,-1.8374,-1.8363,-1.8365,-1.8375,-1.8378,-1.838,-1.838,-1.8343,0,0,0,0,0,-1.8388,-1.8392,-1.8384,-1.8395,-1.8394,-1.8386,-1.8387,-1.8381,-1.8379,-1.8378,-1.8374,-1.8372,-1.8374,-1.8376,-1.8378,-1.839,-1.8388,-1.8395,-1.8398,-1.84,-1.8401,-1.8405,-1.8408,-1.8378,-1.8378,-1.8378,0,0,-1.84,-1.8396,-1.8399,-1.8399,-1.8397,-1.84,-1.8386,-1.839,-1.8392,-1.8379,-1.8385,-1.8382,-1.838,-1.8389,-1.8393,-1.8387,-1.8409,-1.8401,-1.8403,-1.8403,-1.8407,-1.841,-1.8412,-1.8379,-1.8379,-1.8379,0,0,-1.8423,-1.8421,-1.8429,-1.8426,-1.8423,-1.8417,-1.8419,-1.8413,-1.841,-1.8416,-1.8405,-1.8408,-1.8412,-1.841,-1.841,-1.843,-1.8422,-1.8431,-1.8444,-1.8448,-1.845,-1.8452,-1.8458,-1.846,-1.8432,-1.8432,-1.8432,0,-1.8439,-1.8443,-1.8434,-1.8438,-1.8438,-1.8425,-1.8432,-1.843,-1.8428,-1.8427,-1.8421,-1.8425,-1.8422,-1.843,-1.8434,-1.8435,-1.8436,-1.8431,-1.845,-1.8452,-1.8454,-1.8459,-1.8462,-1.8433,-1.8433,-1.8433,-1.8433,0,-1.8462,-1.8465,-1.8472,-1.8468,-1.8468,-1.8474,-1.8465,-1.8467,-1.846,-1.8454,-1.846,-1.8456,-1.8456,-1.8457,-1.8451,-1.8463,-1.846,-1.8452,-1.8441,-1.8458,-1.8463,-1.8465,-1.8435,-1.8434,-1.8434,-1.8434,0,0,-1.8499,-1.8488,-1.8491,-1.8488,-1.8482,-1.8484,-1.8489,-1.8488,-1.8488,-1.8487,-1.849,-1.8493,-1.8485,-1.8484,-1.8478,-1.8482,-1.8496,-1.8473,-1.8473,-1.8476,-1.8507,-1.8512,-1.8514,-1.849,-1.8491,-1.8491,-1.8507,0,-1.852,-1.8527,-1.8517,-1.8526,-1.8528,-1.8515,-1.8519,-1.8515,-1.851,-1.851,-1.8505,-1.8506,-1.8497,-1.8496,-1.8499,-1.8493,-1.8501,-1.8492,-1.8492,-1.8492,-1.8492,-1.8517,-1.8523,-1.8538,-1.8509,-1.8509,-1.8509,0,-1.8545,-1.8543,-1.8552,-1.8544,-1.8544,-1.8548,-1.8545,-1.8546,-1.8541,-1.8537,-1.8535,-1.8527,-1.853,-1.8519,-1.8523,-1.8517,-1.8516,-1.8513,-1.8514,-1.8513,-1.8501,-1.8516,-1.8543,-1.8545,-1.8512,-1.8512,-1.8512,0,-1.8569,-1.8569,-1.8574,-1.8572,-1.8563,-1.8565,-1.8561,-1.8556,-1.8555,-1.8553,-1.8552,-1.855,-1.8549,-1.8548,-1.8539,-1.8532,-1.8543,-1.8532,-1.8539,-1.8539,-1.8542,-1.8541,-1.8568,-1.8543,-1.8543,-1.8543,-1.8543,0,-1.8593,-1.8599,-1.8584,-1.8587,-1.8592,-1.8581,-1.8587,-1.8582,-1.8576,-1.8578,-1.8566,-1.8568,-1.8556,-1.8556,-1.8549,-1.8552,-1.8552,-1.8548,-1.8546,-1.8549,-1.8549,-1.8548,-1.8546,-1.8543,-1.8543,-1.8543,-1.8543,0,-1.8621,-1.8612,-1.8615,-1.8606,-1.8603,-1.8607,-1.8599,-1.8601,-1.8594,-1.8596,-1.8595,-1.8585,-1.8584,-1.8575,-1.8572,-1.8567,-1.8573,-1.857,-1.8574,-1.8573,-1.8579,-1.8579,-1.8605,-1.8608,-1.8582,-1.8582,-1.8583,0,-1.8637,-1.864,-1.863,-1.863,-1.8626,-1.8626,-1.8625,-1.8613,-1.8612,-1.8606,-1.8608,-1.8606,-1.8604,-1.8603,-1.8595,-1.8592,-1.8588,-1.8598,-1.8588,-1.859,-1.8587,-1.8586,-1.8586,-1.86,-1.86,-1.86,-1.86,0,-1.8665,-1.8659,-1.8657,-1.8653,-1.8652,-1.8648,-1.8644,-1.8645,-1.8632,-1.8631,-1.8629,-1.8628,-1.8624,-1.8622,-1.8617,-1.8613,-1.8604,-1.8603,-1.8605,-1.8607,-1.8609,-1.8607,-1.8579,-1.8603,-1.8603,-1.8602,-1.8602,-1.8602,-1.8686,-1.8688,-1.868,-1.8678,-1.8673,-1.8669,-1.867,-1.8663,-1.8661,-1.8656,-1.865,-1.8649,-1.8642,-1.8635,-1.8632,-1.863,-1.8626,-1.8628,-1.8628,-1.8628,-1.8629,-1.861,-1.863,-1.863,-1.863,-1.863,-1.863,0,-1.8712,-1.8706,-1.8704,-1.8698,-1.8696,-1.8687,-1.8681,-1.868,-1.8679,-1.8674,-1.8671,-1.8668,-1.8665,-1.8657,-1.8653,-1.8653,-1.8649,-1.8653,-1.8652,-1.8651,-1.8635,-1.8633,-1.8656,-1.8656,-1.8656,-1.8656,-1.8656,-1.8656,-1.8725,-1.8727,-1.8721,-1.872,-1.8714,-1.8712,-1.8709,-1.8705,-1.87,-1.8697,-1.8695,-1.8689,-1.8681,-1.8677,-1.8673,-1.8671,-1.867,-1.8674,-1.867,-1.8655,-1.8652,-1.865,-1.8649,-1.8674,-1.8674,-1.8687,-1.8687,-1.8687]}]]